#timestamp,LO_Frequency,Hit,StdDev 
1709787615.6,286047001.3,N
1709787635.5,286047003.9,N
1709787655.3,286047002.0,N
1709787675.1,286047002.6,N
1709787695.9,286047002.1,N
1709787715.7,286047001.5,N
1709787735.5,286047001.8,N
1709787755.4,286047001.6,N
1709787775.2,286047002.1,N
1709787795.1,286047001.3,N
1709787796.0,286047001.3,N
1709787815.8,286047003.2,Y
1709787835.6,286047002.6,P
1709787855.5,286047002.4,P
1709787875.3,286047001.8,P
1709787895.2,286047002.8,Y
1709787915.9,286046998.3,P
1709787935.7,286046999.5,N
1709787955.6,286046997.1,N
1709787975.4,286046997.0,N
1709787995.2,286046996.7,N
1709788015.1,286046999.6,N
1709788016.0,286046999.6,N
1709788035.8,286046999.6,N
1709788055.7,286046996.6,N
1709788075.5,286046995.0,N
1709788095.3,286046997.2,N
1709788115.2,286046996.8,N
1709788135.0,286046997.3,N
1709788135.9,286046997.3,N
1709788155.8,286046999.5,N
1709788175.6,286046997.2,N
1709788195.4,286046997.3,N
1709788215.3,286046997.1,N
1709788235.1,286046999.4,N
1709788255.9,286046997.8,N
1709788275.7,286046997.9,N
1709788295.5,286046997.5,N
1709788315.4,286046997.6,N
1709788335.2,286046994.9,Y
1709788355.0,286046998.9,P
1709788355.9,286046998.9,N
1709788375.8,286046998.4,P
1709788395.6,286046998.6,Y
1709788415.5,286047002.6,P
1709788435.3,286047002.3,N
1709788455.1,286047001.8,N
1709788475.9,286047000.1,N
1709788495.7,286047000.2,N
1709788515.6,286047000.9,N
1709788535.4,286047000.7,N
1709788555.2,286047000.9,N
1709788575.1,286047000.7,N
1709788576.0,286047000.7,N
1709788595.8,286046999.9,N
1709788615.7,286046999.7,N
1709788635.5,286047002.2,N
1709788655.3,286047001.5,N
1709788675.2,286047002.6,N
1709788695.0,286047002.5,N
1709788695.9,286047002.5,N
1709788715.8,286047002.1,N
1709788735.6,286047001.7,N
1709788755.4,286047001.7,N
1709788775.3,286047002.1,N
1709788795.1,286047002.1,N
1709788815.8,286047002.2,N
1709788835.7,286047004.3,Y
1709788855.5,286047001.7,P
1709788875.4,286047002.7,P
1709788895.2,286047001.0,N
1709788915.0,286047000.9,N
1709788915.9,286047000.9,N
1709788935.8,286047000.5,N
1709788955.6,286047000.4,N
1709788975.4,286047000.8,N
1709788995.3,286046999.8,N
1709789015.1,286047000.1,N
1709789035.9,286047002.7,Y
1709789055.7,286047000.2,P
1709789075.5,286047002.8,P
1709789095.4,286047000.1,N
1709789115.2,286047000.0,N
1709789135.1,286047002.2,N
1709789136.0,286047002.2,N
1709789155.8,286046999.9,N
1709789175.6,286047001.0,N
1709789225.5,286047002.3,E
1709789235.4,286047000.5,N
1709789255.3,286047001.2,P
1709789275.1,286046998.4,P
1709789276.0,286046998.4,N
1709789295.8,286047000.9,N
1709789315.7,286047000.5,N
1709789335.5,286046999.3,N
1709789355.4,286046998.4,N
1709789375.2,286046996.5,Y
1709789395.0,286046998.7,P
1709789396.0,286046998.7,N
1709789415.8,286046999.2,N
1709789435.6,286046999.0,N
1709789455.5,286046999.2,N
1709789475.3,286046998.7,Y
1709789495.1,286047000.7,P
1709789515.9,286046998.1,N
1709789535.7,286047000.4,N
1709789555.6,286047001.2,N
1709789575.4,286046999.9,N
1709789595.2,286046999.8,N
1709789615.1,286046999.8,N
1709789616.0,286046999.8,N
1709789635.8,286047000.6,N
1709789655.7,286047000.6,N
1709789675.5,286046998.2,N
1709789695.3,286046998.2,N
1709789715.2,286046998.6,N
1709789735.0,286047001.0,N
1709789735.9,286047001.0,N
1709789755.7,286047000.4,N
1709789775.6,286046998.1,N
1709789795.4,286047001.1,N
1709789815.3,286047000.5,N
1709789835.1,286047000.2,N
1709789836.0,286047000.2,N
1709789855.8,286047000.5,N
1709789875.7,286046999.7,N
1709789895.5,286046999.7,N
1709789915.3,286047000.0,N
1709789935.2,286047002.5,N
1709789955.0,286047002.5,N
1709789955.9,286047002.5,N
1709789975.8,286047000.4,N
1709789995.6,286047001.2,N
1709790015.4,286046998.2,N
1709790035.3,286047001.0,N
1709790055.1,286047000.0,N
1709790075.8,286047000.3,N
1709790095.7,286046999.3,N
1709790115.5,286047001.2,N
1709790135.4,286046998.5,N
1709790155.2,286046998.7,N
1709790175.0,286046999.2,N
1709790175.9,286046999.2,N
1709790195.8,286046999.6,N
1709790215.6,286046999.5,N
1709790235.5,286046998.8,N
1709790255.3,286047001.2,N
1709790275.1,286046998.7,N
1709790295.9,286046999.6,N
1709790315.7,286046999.0,N
1709790335.5,286046997.0,N
1709790355.4,286046996.5,N
1709790375.2,286046998.8,N
1709790395.0,286046998.6,N
1709790396.0,286046998.6,N
1709790415.8,286046999.1,N
1709790435.6,286046999.3,N
1709790455.5,286046999.5,N
1709790475.3,286046998.9,N
1709790495.1,286046999.5,N
1709790515.9,286046996.9,N
1709790535.7,286046999.4,N
1709790555.6,286046999.5,N
1709790575.4,286046999.4,N
1709790595.2,286046999.4,N
1709790615.1,286046996.5,Y
1709790616.0,286046996.5,P
1709790635.8,286047000.0,N
1709790655.6,286047000.8,N
1709790675.5,286047001.0,N
1709790695.3,286046998.3,N
1709790715.2,286046998.2,N
1709790735.9,286046998.3,N
1709790755.7,286047000.7,N
1709790775.6,286046998.4,N
1709790795.4,286047001.2,N
1709790815.3,286046998.8,N
1709790835.1,286046999.0,N
1709790836.0,286046999.0,N
1709790855.8,286046998.2,N
1709790875.7,286047001.1,N
1709790895.5,286046999.1,N
1709790915.3,286047000.8,N
1709790935.2,286046998.5,N
1709790955.0,286046998.7,N
1709790955.9,286046998.7,N
1709790975.8,286047000.8,N
1709790995.6,286047000.4,N
1709791015.4,286046999.9,N
1709791035.3,286046999.8,N
1709791055.1,286046999.7,N
1709791075.8,286047000.2,N
1709791095.7,286047000.3,N
1709791115.5,286047000.5,N
1709791135.4,286047000.3,N
1709791155.2,286047000.4,N
1709791175.0,286047001.0,N
1709791175.9,286047001.0,N
1709791195.8,286047001.0,N
